Location: Unspecified
(0.0000°N, 0.0000°E)
Time: 13:41:31
(UTC+00:00)

Tiros 1 - Pass Details

Date: 21 November 2019
Orbit: 630 x 664 km, 48.4° (Epoch: 08 December)

Event Time Altitude Azimuth Distance (km) Brightness Sun altitude
Rises 09:11:34 0° 193° (SSW) 2,954 10.7 47.3°
Reaches altitude 10° 09:14:30 10° 176° (S) 2,035 10.2 48.0°
Maximum altitude 09:17:50 19° 130° (SE) 1,508 10.3 48.7°
Drops below altitude 10° 09:21:09 10° 84° (E) 2,015 10.4 49.4°
Sets 09:24:00 0° 67° (ENE) 2,915 10.8 50.0°
